Location: Casilda
(33.0440°S, 61.1680°W)
Time: 22:42:17
(UTC-03:00)

ISS - Visible Passes

Search period start: 27 May 2018 00:00
Search period end: 06 June 2018 00:00
Orbit: 402 x 407 km, 51.6° (Epoch: 28 May)

Date Brightness Start Highest point End Pass type
(mag) Time Alt. Az. Time Alt. Az. Time Alt. Az.
27 May -3.3 06:41:11 10° NW 06:44:27 62° NE 06:47:45 10° SE visible
28 May -1.7 05:52:26 27° NE 05:52:26 27° NE 05:55:13 10° ESE visible
28 May -2.5 07:26:06 10° W 07:28:48 23° SW 07:31:33 10° SSE visible
29 May -3.5 06:36:21 43° SW 06:36:28 43° SW 06:39:42 10° SSE visible
30 May -0.9 05:47:08 13° SE 05:47:08 13° SE 05:47:34 10° SE visible
30 May -1.6 07:19:51 10° SW 07:21:07 12° SSW 07:22:23 10° S visible
31 May -1.4 06:30:20 14° S 06:30:20 14° S 06:31:07 10° SSE visible
